![]() |
EMODnet Physics ERDDAP
Easier access to scientific data |
log in|
Brought to you by EMODnet Physics |
| Dataset Title: | NDBC - Collection of dew point temperature (DEWT) TimeSeries - IN SITU MultiPointTimeSeriesObservation
|
| Institution: | NDBC (Dataset ID: TS_DEWT_NDBC) |
| Information: | Summary
| License
| FGDC
| ISO 19115
| Metadata
| Background
| Subset
| Data Access Form
| Make a graph
|
| Name | Last modified | Size | Description | |
|---|---|---|---|---|
| Parent Directory | - | - | ||
| APNM4_TS_DEWT_012007.nc | 05-Dec-2024 02:03 | 450250 | ||
| APNM4_TS_DEWT_012009.nc | 05-Dec-2024 02:07 | 441963 | ||
| APNM4_TS_DEWT_012010.nc | 05-Dec-2024 02:08 | 450413 | ||
| APNM4_TS_DEWT_012011.nc | 05-Dec-2024 02:10 | 451215 | ||
| APNM4_TS_DEWT_012012.nc | 05-Dec-2024 02:12 | 1625684 | ||
| APNM4_TS_DEWT_012013.nc | 05-Dec-2024 02:14 | 1475524 | ||
| APNM4_TS_DEWT_012014.nc | 05-Dec-2024 02:16 | 1473074 | ||
| APNM4_TS_DEWT_012015.nc | 05-Dec-2024 02:19 | 1468020 | ||
| APNM4_TS_DEWT_012016.nc | 05-Dec-2024 02:22 | 1469854 | ||
| APNM4_TS_DEWT_012017.nc | 05-Dec-2024 02:26 | 1149140 | ||
| APNM4_TS_DEWT_012018.nc | 05-Dec-2024 02:30 | 1467925 | ||
| APNM4_TS_DEWT_012019.nc | 05-Dec-2024 02:34 | 1460478 | ||
| APNM4_TS_DEWT_012020.nc | 05-Dec-2024 02:38 | 1474260 | ||
| APNM4_TS_DEWT_012021.nc | 05-Dec-2024 02:57 | 1463040 | ||
| APNM4_TS_DEWT_012022.nc | 05-Dec-2024 03:14 | 1459741 | ||
| APNM4_TS_DEWT_012023.nc | 05-Dec-2024 03:21 | 1460729 | ||
| APNM4_TS_DEWT_022007.nc | 05-Dec-2024 02:03 | 1471223 | ||
| APNM4_TS_DEWT_022009.nc | 05-Dec-2024 02:07 | 1462926 | ||
| APNM4_TS_DEWT_022010.nc | 05-Dec-2024 02:08 | 1472096 | ||
| APNM4_TS_DEWT_022011.nc | 05-Dec-2024 02:10 | 1467977 | ||
| APNM4_TS_DEWT_022012.nc | 05-Dec-2024 02:12 | 1468999 | ||
| APNM4_TS_DEWT_022013.nc | 05-Dec-2024 02:14 | 1460130 | ||
| APNM4_TS_DEWT_022014.nc | 05-Dec-2024 02:17 | 1469050 | ||
| APNM4_TS_DEWT_022015.nc | 05-Dec-2024 02:19 | 1153789 | ||
| APNM4_TS_DEWT_022016.nc | 05-Dec-2024 02:23 | 1473488 | ||
| APNM4_TS_DEWT_022017.nc | 05-Dec-2024 02:27 | 1472191 | ||
| APNM4_TS_DEWT_022018.nc | 05-Dec-2024 02:31 | 1458720 | ||
| APNM4_TS_DEWT_022019.nc | 05-Dec-2024 02:34 | 1626144 | ||
| APNM4_TS_DEWT_022020.nc | 05-Dec-2024 02:38 | 1626508 | ||
| APNM4_TS_DEWT_022021.nc | 05-Dec-2024 02:57 | 1836097 | ||
| APNM4_TS_DEWT_022022.nc | 05-Dec-2024 03:15 | 1675466 | ||
| APNM4_TS_DEWT_022023.nc | 05-Dec-2024 03:21 | 1678430 | ||
| APNM4_TS_DEWT_032008.nc | 05-Dec-2024 02:05 | 1664783 | ||
| APNM4_TS_DEWT_032009.nc | 05-Dec-2024 02:07 | 1670693 | ||
| APNM4_TS_DEWT_032010.nc | 05-Dec-2024 02:09 | 1579287 | ||
| APNM4_TS_DEWT_032011.nc | 05-Dec-2024 02:10 | 1631623 | ||
| APNM4_TS_DEWT_032012.nc | 05-Dec-2024 02:12 | 1824104 | ||
| APNM4_TS_DEWT_032013.nc | 05-Dec-2024 02:14 | 1833309 | ||
| APNM4_TS_DEWT_032014.nc | 05-Dec-2024 02:17 | 4179974 | ||
| APNM4_TS_DEWT_032015.nc | 05-Dec-2024 02:20 | 3642578 | ||
| APNM4_TS_DEWT_032016.nc | 05-Dec-2024 02:23 | 1646704 | ||
| APNM4_TS_DEWT_032017.nc | 05-Dec-2024 02:27 | 1662558 | ||
| APNM4_TS_DEWT_032018.nc | 05-Dec-2024 02:31 | 1545919 | ||
| APNM4_TS_DEWT_032019.nc | 05-Dec-2024 02:35 | 1648994 | ||
| APNM4_TS_DEWT_032020.nc | 05-Dec-2024 02:39 | 1626248 | ||
| APNM4_TS_DEWT_032021.nc | 05-Dec-2024 02:58 | 1660603 | ||
| APNM4_TS_DEWT_032022.nc | 05-Dec-2024 03:17 | 1600581 | ||
| APNM4_TS_DEWT_032023.nc | 05-Dec-2024 03:21 | 1657148 | ||
| APNM4_TS_DEWT_042005.nc | 05-Dec-2024 02:01 | 1655029 | ||
| APNM4_TS_DEWT_042006.nc | 05-Dec-2024 02:02 | 3509852 | ||
| APNM4_TS_DEWT_042007.nc | 05-Dec-2024 02:04 | 4450063 | ||
| APNM4_TS_DEWT_042008.nc | 05-Dec-2024 02:05 | 1555691 | ||
| APNM4_TS_DEWT_042009.nc | 05-Dec-2024 02:07 | 1669009 | ||
| APNM4_TS_DEWT_042010.nc | 05-Dec-2024 02:09 | 1666928 | ||
| APNM4_TS_DEWT_042011.nc | 05-Dec-2024 02:10 | 1823619 | ||
| APNM4_TS_DEWT_042012.nc | 05-Dec-2024 02:12 | 1669844 | ||
| APNM4_TS_DEWT_042013.nc | 05-Dec-2024 02:14 | 1639811 | ||
| APNM4_TS_DEWT_042014.nc | 05-Dec-2024 02:17 | 1830208 | ||
| APNM4_TS_DEWT_042015.nc | 05-Dec-2024 02:20 | 1308270 | ||
| APNM4_TS_DEWT_042016.nc | 05-Dec-2024 02:23 | 1832330 | ||
| APNM4_TS_DEWT_042017.nc | 05-Dec-2024 02:27 | 1839664 | ||
| APNM4_TS_DEWT_042018.nc | 05-Dec-2024 02:31 | 4209760 | ||
| APNM4_TS_DEWT_042019.nc | 05-Dec-2024 02:35 | 3683964 | ||
| APNM4_TS_DEWT_042020.nc | 05-Dec-2024 02:41 | 1675521 | ||
| APNM4_TS_DEWT_042021.nc | 05-Dec-2024 02:58 | 1677869 | ||
| APNM4_TS_DEWT_042022.nc | 05-Dec-2024 03:17 | 1663142 | ||
| APNM4_TS_DEWT_042023.nc | 05-Dec-2024 03:22 | 1669791 | ||
| APNM4_TS_DEWT_052005.nc | 05-Dec-2024 02:01 | 1670466 | ||
| APNM4_TS_DEWT_052006.nc | 05-Dec-2024 02:02 | 1674828 | ||
| APNM4_TS_DEWT_052007.nc | 05-Dec-2024 02:04 | 1677668 | ||
| APNM4_TS_DEWT_052008.nc | 05-Dec-2024 02:05 | 1678196 | ||
| APNM4_TS_DEWT_052009.nc | 05-Dec-2024 02:07 | 1675450 | ||
| APNM4_TS_DEWT_052010.nc | 05-Dec-2024 02:09 | 4902773 | ||
| APNM4_TS_DEWT_052011.nc | 05-Dec-2024 02:11 | 1672050 | ||
| APNM4_TS_DEWT_052012.nc | 05-Dec-2024 02:13 | 1826693 | ||
| APNM4_TS_DEWT_052013.nc | 05-Dec-2024 02:15 | 1785222 | ||
| APNM4_TS_DEWT_052014.nc | 05-Dec-2024 02:17 | 1829390 | ||
| APNM4_TS_DEWT_052015.nc | 05-Dec-2024 02:20 | 1673287 | ||
| APNM4_TS_DEWT_052016.nc | 05-Dec-2024 02:24 | 1828218 | ||
| APNM4_TS_DEWT_052017.nc | 05-Dec-2024 02:28 | 1679784 | ||
| APNM4_TS_DEWT_052018.nc | 05-Dec-2024 02:32 | 1830598 | ||
| APNM4_TS_DEWT_052019.nc | 05-Dec-2024 02:35 | 1834741 | ||
| APNM4_TS_DEWT_052020.nc | 05-Dec-2024 02:42 | 5422051 | ||
| APNM4_TS_DEWT_052021.nc | 05-Dec-2024 02:59 | 1673121 | ||
| APNM4_TS_DEWT_052022.nc | 05-Dec-2024 03:18 | 1674554 | ||
| APNM4_TS_DEWT_052023.nc | 05-Dec-2024 03:22 | 1635397 | ||
| APNM4_TS_DEWT_062005.nc | 05-Dec-2024 02:01 | 1660996 | ||
| APNM4_TS_DEWT_062006.nc | 05-Dec-2024 02:02 | 1656563 | ||
| APNM4_TS_DEWT_062007.nc | 05-Dec-2024 02:04 | 1671243 | ||
| APNM4_TS_DEWT_062008.nc | 05-Dec-2024 02:05 | 1670321 | ||
| APNM4_TS_DEWT_062009.nc | 05-Dec-2024 02:07 | 1676818 | ||
| APNM4_TS_DEWT_062010.nc | 05-Dec-2024 02:09 | 1677579 | ||
| APNM4_TS_DEWT_062011.nc | 05-Dec-2024 02:11 | 2749399 | ||
| APNM4_TS_DEWT_062012.nc | 05-Dec-2024 02:13 | 1673563 | ||
| APNM4_TS_DEWT_062013.nc | 05-Dec-2024 02:15 | 1823034 | ||
| APNM4_TS_DEWT_062014.nc | 05-Dec-2024 02:17 | 1636001 | ||
| APNM4_TS_DEWT_062015.nc | 05-Dec-2024 02:20 | 1824473 | ||
| APNM4_TS_DEWT_062016.nc | 05-Dec-2024 02:24 | 1669375 | ||
| APNM4_TS_DEWT_062017.nc | 05-Dec-2024 02:28 | 1477648 | ||
| APNM4_TS_DEWT_062018.nc | 05-Dec-2024 02:32 | 1780823 | ||
| APNM4_TS_DEWT_062019.nc | 05-Dec-2024 02:36 | 1826638 | ||
| APNM4_TS_DEWT_062020.nc | 05-Dec-2024 02:44 | 1830519 | ||
| APNM4_TS_DEWT_062021.nc | 05-Dec-2024 03:01 | 1827362 | ||
| APNM4_TS_DEWT_062022.nc | 05-Dec-2024 03:18 | 1305831 | ||
| APNM4_TS_DEWT_062023.nc | 05-Dec-2024 03:22 | 1826463 | ||
| APNM4_TS_DEWT_072005.nc | 05-Dec-2024 02:01 | 1667379 | ||
| APNM4_TS_DEWT_072006.nc | 05-Dec-2024 02:02 | 1819721 | ||
| APNM4_TS_DEWT_072007.nc | 05-Dec-2024 02:04 | 1831023 | ||
| APNM4_TS_DEWT_072008.nc | 05-Dec-2024 02:05 | 1673610 | ||
| APNM4_TS_DEWT_072009.nc | 05-Dec-2024 02:07 | 1798077 | ||
| APNM4_TS_DEWT_072010.nc | 05-Dec-2024 02:09 | 1827102 | ||
| APNM4_TS_DEWT_072011.nc | 05-Dec-2024 02:11 | 1832658 | ||
| APNM4_TS_DEWT_072012.nc | 05-Dec-2024 02:13 | 1834508 | ||
| APNM4_TS_DEWT_072013.nc | 05-Dec-2024 02:15 | 3620914 | ||
| APNM4_TS_DEWT_072014.nc | 05-Dec-2024 02:18 | 1665816 | ||
| APNM4_TS_DEWT_072015.nc | 05-Dec-2024 02:20 | 1620397 | ||
| APNM4_TS_DEWT_072016.nc | 05-Dec-2024 02:24 | 1644283 | ||
| APNM4_TS_DEWT_072017.nc | 05-Dec-2024 02:28 | 1665744 | ||
| APNM4_TS_DEWT_072018.nc | 05-Dec-2024 02:32 | 1666687 | ||
| APNM4_TS_DEWT_072019.nc | 05-Dec-2024 02:36 | 1637726 | ||
| APNM4_TS_DEWT_072020.nc | 05-Dec-2024 02:46 | 1673038 | ||
| APNM4_TS_DEWT_072021.nc | 05-Dec-2024 03:03 | 1675509 | ||
| APNM4_TS_DEWT_072022.nc | 05-Dec-2024 03:19 | 1679925 | ||
| APNM4_TS_DEWT_072023.nc | 05-Dec-2024 03:23 | 4950130 | ||
| APNM4_TS_DEWT_082005.nc | 05-Dec-2024 02:01 | 1671110 | ||
| APNM4_TS_DEWT_082006.nc | 05-Dec-2024 02:03 | 1671495 | ||
| APNM4_TS_DEWT_082007.nc | 05-Dec-2024 02:04 | 1662274 | ||
| APNM4_TS_DEWT_082008.nc | 05-Dec-2024 02:06 | 1671857 | ||
| APNM4_TS_DEWT_082009.nc | 05-Dec-2024 02:08 | 1305510 | ||
| APNM4_TS_DEWT_082011.nc | 05-Dec-2024 02:11 | 1543836 | ||
| APNM4_TS_DEWT_082012.nc | 05-Dec-2024 02:13 | 1633006 | ||
| APNM4_TS_DEWT_082013.nc | 05-Dec-2024 02:15 | 1832726 | ||
| APNM4_TS_DEWT_082014.nc | 05-Dec-2024 02:18 | 1747921 | ||
| APNM4_TS_DEWT_082015.nc | 05-Dec-2024 02:21 | 1836962 | ||
| APNM4_TS_DEWT_082016.nc | 05-Dec-2024 02:25 | 494955 | ||
| APNM4_TS_DEWT_082017.nc | 05-Dec-2024 02:29 | 5033138 | ||
| APNM4_TS_DEWT_082018.nc | 05-Dec-2024 02:33 | 1676994 | ||
| APNM4_TS_DEWT_082019.nc | 05-Dec-2024 02:36 | 1644433 | ||
| APNM4_TS_DEWT_082020.nc | 05-Dec-2024 02:48 | 1586701 | ||
| APNM4_TS_DEWT_082021.nc | 05-Dec-2024 03:05 | 1635487 | ||
| APNM4_TS_DEWT_082022.nc | 05-Dec-2024 03:19 | 1296933 | ||
| APNM4_TS_DEWT_082023.nc | 05-Dec-2024 03:23 | 1499784 | ||
| APNM4_TS_DEWT_092005.nc | 05-Dec-2024 02:01 | 1318065 | ||
| APNM4_TS_DEWT_092006.nc | 05-Dec-2024 02:03 | 1672409 | ||
| APNM4_TS_DEWT_092007.nc | 05-Dec-2024 02:04 | 1674430 | ||
| APNM4_TS_DEWT_092008.nc | 05-Dec-2024 02:06 | 1678514 | ||
| APNM4_TS_DEWT_092009.nc | 05-Dec-2024 02:08 | 5560736 | ||
| APNM4_TS_DEWT_092010.nc | 05-Dec-2024 02:09 | 5851222 | ||
| APNM4_TS_DEWT_092011.nc | 05-Dec-2024 02:11 | 1673533 | ||
| APNM4_TS_DEWT_092012.nc | 05-Dec-2024 02:13 | 1661337 | ||
| APNM4_TS_DEWT_092013.nc | 05-Dec-2024 02:16 | 1661540 | ||
| APNM4_TS_DEWT_092014.nc | 05-Dec-2024 02:18 | 1663701 | ||
| APNM4_TS_DEWT_092015.nc | 05-Dec-2024 02:21 | 1530087 | ||
| APNM4_TS_DEWT_092016.nc | 05-Dec-2024 02:25 | 1648434 | ||
| APNM4_TS_DEWT_092017.nc | 05-Dec-2024 02:29 | 1827177 | ||
| APNM4_TS_DEWT_092018.nc | 05-Dec-2024 02:33 | 1670129 | ||
| APNM4_TS_DEWT_092019.nc | 05-Dec-2024 02:37 | 1657384 | ||
| APNM4_TS_DEWT_092020.nc | 05-Dec-2024 02:50 | 5447172 | ||
| APNM4_TS_DEWT_092021.nc | 05-Dec-2024 03:06 | 5360804 | ||
| APNM4_TS_DEWT_092022.nc | 05-Dec-2024 03:19 | 1836360 | ||
| APNM4_TS_DEWT_092023.nc | 05-Dec-2024 03:24 | 1677328 | ||
| APNM4_TS_DEWT_102005.nc | 05-Dec-2024 02:02 | 1832802 | ||
| APNM4_TS_DEWT_102006.nc | 05-Dec-2024 02:03 | 1833699 | ||
| APNM4_TS_DEWT_102008.nc | 05-Dec-2024 02:06 | 1837245 | ||
| APNM4_TS_DEWT_102009.nc | 05-Dec-2024 02:08 | 4824027 | ||
| APNM4_TS_DEWT_102010.nc | 05-Dec-2024 02:09 | 2199162 | ||
| APNM4_TS_DEWT_102011.nc | 05-Dec-2024 02:11 | 1653580 | ||
| APNM4_TS_DEWT_102012.nc | 05-Dec-2024 02:13 | 1658654 | ||
| APNM4_TS_DEWT_102013.nc | 05-Dec-2024 02:16 | 1657240 | ||
| APNM4_TS_DEWT_102014.nc | 05-Dec-2024 02:18 | 1659236 | ||
| APNM4_TS_DEWT_102015.nc | 05-Dec-2024 02:21 | 1660732 | ||
| APNM4_TS_DEWT_102016.nc | 05-Dec-2024 02:25 | 3519635 | ||
| APNM4_TS_DEWT_102017.nc | 05-Dec-2024 02:29 | 4820750 | ||
| APNM4_TS_DEWT_102018.nc | 05-Dec-2024 02:33 | 1709125 | ||
| APNM4_TS_DEWT_102019.nc | 05-Dec-2024 02:37 | 1675664 | ||
| APNM4_TS_DEWT_102020.nc | 05-Dec-2024 02:52 | 1690511 | ||
| APNM4_TS_DEWT_102021.nc | 05-Dec-2024 03:08 | 1677990 | ||
| APNM4_TS_DEWT_102022.nc | 05-Dec-2024 03:20 | 1315796 | ||
| APNM4_TS_DEWT_102023.nc | 05-Dec-2024 03:24 | 1828275 | ||
| APNM4_TS_DEWT_112005.nc | 05-Dec-2024 02:02 | 1838621 | ||
| APNM4_TS_DEWT_112006.nc | 05-Dec-2024 02:03 | 4242076 | ||
| APNM4_TS_DEWT_112008.nc | 05-Dec-2024 02:06 | 3994320 | ||
| APNM4_TS_DEWT_112009.nc | 05-Dec-2024 02:08 | 1677831 | ||
| APNM4_TS_DEWT_112010.nc | 05-Dec-2024 02:10 | 1676679 | ||
| APNM4_TS_DEWT_112011.nc | 05-Dec-2024 02:12 | 1644083 | ||
| APNM4_TS_DEWT_112012.nc | 05-Dec-2024 02:14 | 1671623 | ||
| APNM4_TS_DEWT_112013.nc | 05-Dec-2024 02:16 | 1677664 | ||
| APNM4_TS_DEWT_112014.nc | 05-Dec-2024 02:19 | 1673513 | ||
| APNM4_TS_DEWT_112015.nc | 05-Dec-2024 02:22 | 1673178 | ||
| APNM4_TS_DEWT_112016.nc | 05-Dec-2024 02:26 | 4675138 | ||
| APNM4_TS_DEWT_112017.nc | 05-Dec-2024 02:30 | 1836238 | ||
| APNM4_TS_DEWT_112018.nc | 05-Dec-2024 02:34 | 1834287 | ||
| APNM4_TS_DEWT_112019.nc | 05-Dec-2024 02:37 | 1832857 | ||
| APNM4_TS_DEWT_112020.nc | 05-Dec-2024 02:53 | 1824893 | ||
| APNM4_TS_DEWT_112021.nc | 05-Dec-2024 03:10 | 1828642 | ||
| APNM4_TS_DEWT_112022.nc | 05-Dec-2024 03:20 | 1828788 | ||
| APNM4_TS_DEWT_112023.nc | 05-Dec-2024 03:24 | 1836318 | ||
| APNM4_TS_DEWT_122005.nc | 05-Dec-2024 02:02 | 5501708 | ||
| APNM4_TS_DEWT_122006.nc | 05-Dec-2024 02:03 | 1676301 | ||
| APNM4_TS_DEWT_122008.nc | 05-Dec-2024 02:06 | 1676344 | ||
| APNM4_TS_DEWT_122009.nc | 05-Dec-2024 02:08 | 1670250 | ||
| APNM4_TS_DEWT_122010.nc | 05-Dec-2024 02:10 | 1667018 | ||
| APNM4_TS_DEWT_122011.nc | 05-Dec-2024 02:12 | 1674804 | ||
| APNM4_TS_DEWT_122012.nc | 05-Dec-2024 02:14 | 1672475 | ||
| APNM4_TS_DEWT_122013.nc | 05-Dec-2024 02:16 | 1672363 | ||
| APNM4_TS_DEWT_122014.nc | 05-Dec-2024 02:19 | 2817639 | ||
| APNM4_TS_DEWT_122015.nc | 05-Dec-2024 02:22 | 1827559 | ||
| APNM4_TS_DEWT_122016.nc | 05-Dec-2024 02:26 | 1826237 | ||
| APNM4_TS_DEWT_122017.nc | 05-Dec-2024 02:30 | 1673407 | ||
| APNM4_TS_DEWT_122018.nc | 05-Dec-2024 02:34 | 1649076 | ||
| APNM4_TS_DEWT_122019.nc | 05-Dec-2024 02:38 | 1829175 | ||
| APNM4_TS_DEWT_122020.nc | 05-Dec-2024 02:55 | 1828741 | ||
| APNM4_TS_DEWT_122021.nc | 05-Dec-2024 03:12 | 1827638 | ||
| APNM4_TS_DEWT_122022.nc | 05-Dec-2024 03:20 | 1781898 | ||
| APNM4_TS_DEWT_122023.nc | 05-Dec-2024 03:25 | 1830244 | ||